, TX

(GMT )
Galveston 424

Weather History for KGVX - June, 2014

Change the Weather History Date:

Tuesday, June 10, 2014

  Actual Average Record
Temperature  
Mean Temperature 82 °F -  
Max Temperature 84 °F - - ()
Min Temperature 80 °F - - ()
Cooling Degree Days 17    
Growing Degree Days 32 (Base 50)    
Moisture  
Dew Point 77 °F    
Average Humidity 87    
Maximum Humidity 94    
Minimum Humidity 79    
Precipitation  
Precipitation 0.00 in - - ()
Sea Level Pressure  
Sea Level Pressure 29.85 in    
Wind  
Wind Speed 6 mph (South)    
Max Wind Speed 10 mph    
Max Gust Speed 22 mph    
Visibility 7 miles    
Events      
Averages and records for this station are not official NWS values.
T = Trace of Precipitation, MM = Missing Value Source: NWS Daily Summary

Daily Weather History Graph

Daily Weather History Graph

Search for Another Location

Airport or City:

Astronomy

Jun. 10, 2014 Rise Set
Actual Time 6:21 AM CDT 8:17 PM CDT
Civil Twilight 5:54 AM CDT 8:44 PM CDT
Nautical Twilight 5:22 AM CDT 9:16 PM CDT
Astronomical Twilight 4:47 AM CDT 9:51 PM CDT
Moon 5:53 PM CDT (6/10) 4:15 AM CDT (6/10)
Length of Visible Light 14h 49m
Length of Day
13h 55m
Waxing Gibbous, 92% of the Moon is Illuminated
Jun 10
Waxing Gibbous
Jun 12
Full
Jun 19
Last Quarter
Jun 27
New
Jul 5
First Quarter

Hourly Weather History & Observations

Time (CDT) Temp. Heat Index Dew Point Humidity Pressure Visibility Wind Dir Wind Speed Gust Speed Precip Events Conditions
12:15 AM 80.6 °F 87.1 °F 77.0 °F 89% 29.84 in 10.0 mi South 10.4 mph 20.7 mph N/A   Scattered Clouds
12:35 AM 80.6 °F 87.1 °F 77.0 °F 89% 29.84 in 9.0 mi Variable 6.9 mph 18.4 mph N/A   Scattered Clouds
12:55 AM 80.6 °F 87.1 °F 77.0 °F 89% 29.84 in 8.0 mi Variable 5.8 mph 16.1 mph N/A   Mostly Cloudy
1:15 AM 80.6 °F 87.1 °F 77.0 °F 89% 29.84 in 10.0 mi Variable 8.1 mph - N/A   Scattered Clouds
1:35 AM 80.6 °F 87.1 °F 77.0 °F 89% 29.84 in 7.0 mi Variable 6.9 mph 17.3 mph N/A   Scattered Clouds
1:55 AM 80.6 °F 87.1 °F 77.0 °F 89% 29.83 in 7.0 mi Variable 6.9 mph 13.8 mph N/A   Scattered Clouds
2:15 AM 80.6 °F 87.1 °F 77.0 °F 89% 29.82 in 7.0 mi Variable 6.9 mph 15.0 mph N/A   Mostly Cloudy
2:35 AM 80.6 °F 87.1 °F 77.0 °F 89% 29.82 in 7.0 mi Variable 6.9 mph 16.1 mph N/A   Mostly Cloudy
2:55 AM 80.6 °F 87.1 °F 77.0 °F 89% 29.83 in 8.0 mi South 8.1 mph 16.1 mph N/A   Scattered Clouds
3:15 AM 80.6 °F 87.1 °F 77.0 °F 89% 29.82 in 8.0 mi Variable 6.9 mph 17.3 mph N/A   Mostly Cloudy
3:35 AM 80.6 °F 87.1 °F 77.0 °F 89% 29.82 in 8.0 mi Variable 8.1 mph 16.1 mph N/A   Scattered Clouds
4:15 AM 80.6 °F 87.1 °F 77.0 °F 89% 29.82 in 9.0 mi Variable 6.9 mph 16.1 mph N/A   Scattered Clouds
4:35 AM 80.6 °F 87.1 °F 77.0 °F 89% 29.81 in 7.0 mi Variable 8.1 mph 17.3 mph N/A   Mostly Cloudy
4:55 AM 80.6 °F 87.1 °F 77.0 °F 89% 29.80 in 7.0 mi Variable 6.9 mph 17.3 mph N/A   Mostly Cloudy
5:15 AM 80.6 °F 87.1 °F 77.0 °F 89% 29.80 in 8.0 mi Variable 6.9 mph 16.1 mph N/A   Mostly Cloudy
5:35 AM 80.6 °F 87.1 °F 77.0 °F 89% 29.81 in 7.0 mi Variable 5.8 mph 17.3 mph N/A   Mostly Cloudy
5:55 AM 80.6 °F 87.1 °F 77.0 °F 89% 29.82 in - Variable 8.1 mph 16.1 mph N/A   Mostly Cloudy
6:15 AM 80.6 °F 87.1 °F 77.0 °F 89% 29.83 in 7.0 mi Variable 8.1 mph 15.0 mph N/A   Mostly Cloudy
6:35 AM 80.6 °F 87.1 °F 77.0 °F 89% 29.82 in 6.0 mi Variable 6.9 mph 19.6 mph N/A   Haze
6:55 AM 82.4 °F 90.9 °F 77.0 °F 84% 29.80 in 6.0 mi Variable 6.9 mph 17.3 mph N/A   Haze
7:00 AM 82.4 °F 90.9 °F 77.0 °F 84% 29.81 in 6.0 mi Variable 6.9 mph 17.3 mph N/A   Haze
7:35 AM 82.4 °F 90.9 °F 77.0 °F 84% 29.83 in - SSW 8.1 mph 16.1 mph N/A   Unknown
7:55 AM 82.4 °F 90.9 °F 77.0 °F 84% 29.83 in 7.0 mi Variable 6.9 mph 18.4 mph N/A   Unknown
8:15 AM 82.4 °F 90.9 °F 77.0 °F 84% 29.85 in 6.0 mi Variable 5.8 mph 15.0 mph N/A   Haze
8:35 AM 82.4 °F 90.9 °F 77.0 °F 84% 29.83 in 6.0 mi Variable 6.9 mph 13.8 mph N/A   Haze
8:55 AM 82.4 °F 90.9 °F 77.0 °F 84% 29.86 in 6.0 mi Variable 6.9 mph 15.0 mph N/A   Haze
9:15 AM 82.4 °F 90.9 °F 77.0 °F 84% 29.87 in 6.0 mi Variable 6.9 mph 17.3 mph N/A   Haze
9:35 AM 82.4 °F 90.9 °F 77.0 °F 84% 29.88 in 7.0 mi Variable 4.6 mph 12.7 mph N/A   Overcast
9:55 AM 82.4 °F 90.9 °F 77.0 °F 84% 29.88 in 7.0 mi Variable 4.6 mph 13.8 mph N/A   Overcast
10:15 AM 82.4 °F 90.9 °F 77.0 °F 84% 29.88 in 7.0 mi Variable 5.8 mph 12.7 mph N/A   Mostly Cloudy
10:35 AM 82.4 °F 90.9 °F 77.0 °F 84% 29.89 in 7.0 mi Variable 5.8 mph 11.5 mph N/A   Mostly Cloudy
10:55 AM 82.4 °F 90.9 °F 77.0 °F 84% 29.89 in 7.0 mi Variable 6.9 mph 21.9 mph N/A   Mostly Cloudy
11:15 AM 82.4 °F 90.9 °F 77.0 °F 84% 29.89 in 7.0 mi Variable 5.8 mph 11.5 mph N/A   Mostly Cloudy
11:35 AM 82.4 °F 90.9 °F 77.0 °F 84% 29.90 in 7.0 mi Variable 4.6 mph 11.5 mph N/A   Mostly Cloudy
11:55 AM 82.4 °F 90.9 °F 77.0 °F 84% 29.90 in 8.0 mi Variable 4.6 mph - N/A   Mostly Cloudy
12:15 PM 84.2 °F 94.1 °F 77.0 °F 79% 29.90 in 8.0 mi Variable 4.6 mph 11.5 mph N/A   Mostly Cloudy
12:35 PM 82.4 °F 90.9 °F 77.0 °F 84% 29.90 in 8.0 mi Variable 5.8 mph - N/A   Mostly Cloudy
1:15 PM 82.4 °F 90.9 °F 77.0 °F 84% 29.89 in 8.0 mi Variable 4.6 mph 11.5 mph N/A   Mostly Cloudy
1:35 PM 82.4 °F 90.9 °F 77.0 °F 84% 29.89 in 7.0 mi Variable 4.6 mph - N/A   Scattered Clouds
1:55 PM 84.2 °F 94.1 °F 77.0 °F 79% 29.89 in 7.0 mi Variable 4.6 mph - N/A   Partly Cloudy
2:15 PM 82.4 °F 90.9 °F 77.0 °F 84% 29.89 in 7.0 mi Variable 4.6 mph 11.5 mph N/A   Scattered Clouds
2:55 PM 82.4 °F 90.9 °F 77.0 °F 84% 29.88 in 7.0 mi Variable 4.6 mph - N/A   Scattered Clouds
3:15 PM 82.4 °F 90.9 °F 77.0 °F 84% 29.87 in 7.0 mi Calm Calm - N/A   Scattered Clouds
3:35 PM 82.4 °F 90.9 °F 77.0 °F 84% 29.87 in 8.0 mi Variable 4.6 mph - N/A   Scattered Clouds
3:55 PM 82.4 °F 90.9 °F 77.0 °F 84% 29.87 in 8.0 mi Variable 3.5 mph - N/A   Mostly Cloudy
4:15 PM 82.4 °F 90.9 °F 77.0 °F 84% 29.86 in 7.0 mi Variable 4.6 mph - N/A   Mostly Cloudy
4:55 PM 82.4 °F 90.9 °F 77.0 °F 84% 29.85 in 8.0 mi Variable 4.6 mph - N/A   Partly Cloudy
5:15 PM 82.4 °F 90.9 °F 77.0 °F 84% 29.85 in 7.0 mi Variable 3.5 mph - N/A   Scattered Clouds
5:35 PM 82.4 °F 90.9 °F 77.0 °F 84% 29.85 in 7.0 mi Variable 3.5 mph - N/A   Scattered Clouds
5:55 PM 82.4 °F 90.9 °F 77.0 °F 84% 29.84 in 7.0 mi Variable 4.6 mph - N/A   Partly Cloudy
6:15 PM 82.4 °F 90.9 °F 77.0 °F 84% 29.84 in 7.0 mi Variable 4.6 mph - N/A   Clear
6:35 PM 82.4 °F 90.9 °F 77.0 °F 84% 29.84 in 7.0 mi Calm Calm - N/A   Clear
6:55 PM 82.4 °F 90.9 °F 77.0 °F 84% 29.84 in 7.0 mi Variable 3.5 mph - N/A   Clear
7:15 PM 82.4 °F 90.9 °F 77.0 °F 84% 29.84 in 7.0 mi Variable 3.5 mph - N/A   Clear
7:35 PM 82.4 °F 92.4 °F 78.8 °F 89% 29.84 in 6.0 mi Calm Calm - N/A   Clear
7:55 PM 82.4 °F 90.9 °F 77.0 °F 84% 29.84 in 7.0 mi Variable 4.6 mph - N/A   Partly Cloudy
8:15 PM 82.4 °F 92.4 °F 78.8 °F 89% 29.84 in 7.0 mi Variable 4.6 mph - N/A   Partly Cloudy
8:35 PM 82.4 °F 92.4 °F 78.8 °F 89% 29.84 in 7.0 mi Variable 4.6 mph - N/A   Clear
8:55 PM 80.6 °F 88.1 °F 78.8 °F 94% 29.85 in 8.0 mi Variable 3.5 mph - N/A   Clear
9:15 PM 80.6 °F 88.1 °F 78.8 °F 94% 29.85 in 9.0 mi Variable 4.6 mph - N/A   Clear
9:35 PM 80.6 °F 87.1 °F 77.0 °F 89% 29.86 in 9.0 mi Variable 4.6 mph - N/A   Partly Cloudy
9:55 PM 80.6 °F 88.1 °F 78.8 °F 94% 29.86 in 9.0 mi Calm Calm - N/A   Partly Cloudy
10:15 PM 80.6 °F 88.1 °F 78.8 °F 94% 29.86 in 9.0 mi Variable 3.5 mph - N/A   Clear
10:35 PM 80.6 °F 88.1 °F 78.8 °F 94% 29.87 in 8.0 mi Calm Calm - N/A   Partly Cloudy
10:55 PM 82.4 °F 92.4 °F 78.8 °F 89% 29.87 in 9.0 mi Calm Calm - N/A   Clear
11:35 PM 80.6 °F 88.1 °F 78.8 °F 94% 29.88 in 8.0 mi Calm Calm - N/A   Mostly Cloudy
11:55 PM 80.6 °F 88.1 °F 78.8 °F 94% 29.89 in 9.0 mi Variable 3.5 mph - N/A   Mostly Cloudy